Simultaneous Nadir Overpasses (SNOs) Predictions

Prediction of SNOs between METOP-A and NOAA-19 Satellite Orbit:

Table of predicted SNOs for the next 14.0 days since TLE Epoch: 1/1/2016
Index Date (METOP-A) Time (METOP-A) Lat,Lon (METOP-A) SZA (METOP-A ) Date (NOAA-19) Time (NOAA-19) Lat,Lon (NOAA-19) SZA (NOAA-19 ) Distance(km) Time Diff (sec)
1 01/02/2016 13:15:00 -76.07, 161.38 81.08 01/02/2016 13:13:52 -76.07, 158.55 81.05 75.84 68
2 01/02/2016 14:05:49 75.66, -32.65 98.52 01/02/2016 14:04:39 75.63, -32.65 98.49 3.29 70
3 01/02/2016 14:56:31 -75.64, 134.61 81.51 01/02/2016 14:55:45 -75.65, 134.50 81.49 3.50 46
4 01/02/2016 15:47:12 75.59, -58.19 98.45 01/02/2016 15:46:41 75.61, -58.11 98.47 3.33 31
5 01/02/2016 16:37:53 -75.62, 109.21 81.54 01/02/2016 16:37:46 -75.59, 109.19 81.56 2.88 7
6 01/02/2016 17:28:34 75.57, -83.59 98.42 01/02/2016 17:28:43 75.60, -83.57 98.45 2.92 9
7 01/02/2016 18:19:16 -75.55, 83.67 81.61 01/02/2016 18:19:48 -75.58, 83.73 81.58 3.32 32
8 01/02/2016 19:09:56 75.56,-108.99 98.40 01/02/2016 19:10:44 75.54,-108.88 98.38 3.40 48
9 01/02/2016 20:00:38 -75.53, 58.27 81.63 01/02/2016 20:01:50 -75.57, 58.27 81.60 3.41 72
10 01/13/2016 03:29:35 76.12, 127.94 97.63 01/13/2016 03:28:28 76.15, 124.83 97.70 82.93 67
11 01/13/2016 04:20:26 -75.68, -66.20 82.81 01/13/2016 04:19:21 -75.65, -66.19 82.83 3.57 65
12 01/13/2016 05:11:07 75.64, 101.00 97.15 01/13/2016 05:10:19 75.64, 101.10 97.15 2.80 48
13 01/13/2016 06:01:49 -75.62, -91.74 82.88 01/13/2016 06:01:23 -75.64, -91.66 82.86 3.28 26
14 01/13/2016 06:52:29 75.62, 75.60 97.12 01/13/2016 06:52:21 75.63, 75.64 97.13 1.16 8
15 01/13/2016 07:43:11 -75.60,-117.14 82.91 01/13/2016 07:43:25 -75.63,-117.12 82.88 2.99 14
16 01/13/2016 08:33:51 75.60, 50.20 97.09 01/13/2016 08:34:23 75.61, 50.17 97.10 1.44 32
17 01/13/2016 09:24:33 -75.58,-142.54 82.94 01/13/2016 09:25:26 -75.57,-142.44 82.96 3.17 53
18 01/13/2016 10:15:13 75.59, 24.81 97.06 01/13/2016 10:16:25 75.60, 24.71 97.08 3.18 72




NCC Satellite Simultaneous Nadir Overpasses (SNOs) Prediction Service
